This is the latest recevied weather packets stored in our database for station/object E20EHQ-13. If no packets are shown the sender has not sent any weather packets the latest 10 day(s).
| Time | Temp. | Humidity | Pressure | Rain* | Wind** | Luminosity | Snow |
|---|---|---|---|---|---|---|---|
| 1778138663 | 33.89° C | 66% | 1004.6 hPa | 0 mm | - | 781 W/m² | - |
| 1778138363 | 33.89° C | 66% | 1004.7 hPa | 0 mm | - | 826 W/m² | - |
| 1778138063 | 33.89° C | 66% | 1004.8 hPa | 0 mm | - | 810 W/m² | - |
| 1778137462 | 33.89° C | 67% | 1004.9 hPa | 0 mm | - | 817 W/m² | - |
| 1778137162 | 33.89° C | 67% | 1005 hPa | 0 mm | - | 784 W/m² | - |
| 1778136863 | 33.89° C | 68% | 1005.2 hPa | 0 mm | - | 836 W/m² | - |
| 1778136263 | 33.33° C | 67% | 1005.7 hPa | 0 mm | - | 899 W/m² | - |
| 1778135363 | 32.78° C | 68% | 1006.2 hPa | 0 mm | - | 753 W/m² | - |
| 1778135063 | 32.78° C | 69% | 1006.4 hPa | 0 mm | - | 901 W/m² | - |
| 1778134762 | 32.78° C | 69% | 1006.6 hPa | 0 mm | - | 521 W/m² | - |
| 1778134162 | 32.78° C | 68% | 1006.6 hPa | 0 mm | - | 207 W/m² | - |
| 1778133862 | 32.78° C | 68% | 1006.8 hPa | 0 mm | - | 131 W/m² | - |
| 1778133263 | 33.33° C | 68% | 1007.1 hPa | 0 mm | - | 155 W/m² | - |
| 1778132963 | 33.33° C | 68% | 1007.2 hPa | 0 mm | - | 143 W/m² | - |
| 1778132662 | 33.33° C | 67% | 1007.3 hPa | 0 mm | - | 207 W/m² | - |
| 1778132363 | 33.33° C | 67% | 1007.4 hPa | 0 mm | - | 226 W/m² | - |
| 1778131762 | 33.33° C | 67% | 1007.5 hPa | 0 mm | - | 362 W/m² | - |
| 1778131462 | 33.33° C | 68% | 1007.7 hPa | 0 mm | - | 557 W/m² | - |
| 1778130862 | 33.33° C | 67% | 1007.7 hPa | 0 mm | - | 231 W/m² | - |
| 1778130562 | 33.33° C | 67% | 1007.8 hPa | 0 mm | - | 239 W/m² | - |
| 1778130262 | 33.33° C | 67% | 1007.8 hPa | 0 mm | - | 241 W/m² | - |
| 1778129662 | 33.33° C | 68% | 1007.9 hPa | 0 mm | - | 310 W/m² | - |
| 1778129362 | 33.33° C | 70% | 1008 hPa | 0 mm | - | 323 W/m² | - |
| 1778129063 | 32.78° C | 70% | 1008 hPa | 0 mm | - | 336 W/m² | - |
| 1778128763 | 32.78° C | 71% | 1008.1 hPa | 0 mm | - | 421 W/m² | - |
* Rain latest hour (hover to see other rain measurements)
** Current wind speed in m/s (hover to see current wind gust speed)